This demonstration page uses our WeatherBlox Daily Observations layout. Learn more.

Left ArrowRight Arrow

Hourly Observations for April 27, 2018

Temp ( °F °C ) Dew Point ( °F °C ) Humidity (%) Winds ( mph kmh ) Pressure ( in mb ) Visibility ( mi km ) Precip ( " mm )
12:56 am 00:56 Clear 42 5.6 31 -0.6 65 65 Calm 30.13 1020 10 16 0.00 0.00
1:56 am 01:56 Clear 39 3.9 30 -1.1 70 70 W 3 6 30.13 1020 10 16 0.00 0.00
2:56 am 02:56 Clear 38 3.3 29 -1.7 70 70 WNW 5 7 30.11 1020 10 16 0.00 0.00
3:56 am 03:56 Clear 37 2.8 29 -1.7 73 73 W 5 7 30.10 1019 10 16 0.00 0.00
4:56 am 04:56 Clear 43 6.1 28 -2.2 56 56 WSW 7 11 30.09 1019 10 16 0.00 0.00
5:56 am 05:56 Clear 43 6.1 28 -2.2 56 56 WSW 6 9 30.08 1019 10 16 0.00 0.00
6:56 am 06:56 Sunny 46 7.8 28 -2.2 50 50 WSW 12 19 30.07 1018 10 16 0.00 0.00
7:56 am 07:56 Sunny 48 8.9 29 -1.7 48 48 WSW 12 19 30.08 1019 10 16 0.00 0.00
8:56 am 08:56 Sunny 53 11.7 32 0 45 45 WSW 7 11 30.06 1018 10 16 0.00 0.00
9:56 am 09:56 Sunny 57 13.9 35 1.7 44 44 W 8 13 30.05 1018 10 16 0.00 0.00
10:56 am 10:56 Sunny 64 17.8 36 2.2 35 35 WNW 10 17 30.04 1017 10 16 0.00 0.00
11:56 am 11:56 Sunny 70 21.1 34 1.1 27 27 WNW 14 22 30.03 1017 10 16 0.00 0.00
12:56 pm 12:56 Sunny 71 21.7 32 0 24 24 NNW 14 22 30.00 1016 10 16 0.00 0.00
1:56 pm 13:56 Sunny 73 22.8 30 -1.1 20 20 WNW 7 11 29.98 1015 10 16 0.00 0.00
2:56 pm 14:56 Sunny 75 23.9 32 0 21 21 NW 14 22 29.96 1015 10 16 0.00 0.00
3:56 pm 15:56 Sunny 76 24.4 34 1.1 22 22 NW 15 24 29.93 1014 10 16 0.00 0.00
4:56 pm 16:56 Sunny 76 24.4 35 1.7 23 23 N 10 17 29.92 1013 10 16 0.00 0.00
5:56 pm 17:56 Sunny 76 24.4 33 0.6 21 21 NNW 13 20 29.92 1013 10 16 0.00 0.00
6:56 pm 18:56 Sunny 72 22.2 39 3.9 30 30 NNE 21 33 29.93 1014 10 16 0.00 0.00
7:56 pm 19:56 Sunny 66 18.9 37 2.8 34 34 NNE 16 26 29.96 1014 9 14 0.00 0.00
8:56 pm 20:56 Clear 58 14.4 37 2.8 46 46 NNE 10 17 29.99 1016 10 16 0.00 0.00
9:56 pm 21:56 Clear 55 12.8 36 2.2 49 49 NE 10 17 30.02 1017 9 14 0.00 0.00
10:56 pm 22:56 Clear 50 10 36 2.2 59 59 NE 8 13 30.04 1017 10 16 0.00 0.00

Powered by AerisWeather